Year,Month,Day,Hour,Minute,Value (Times are PST for temperature in C)
2013,11,19,00,00,5.10
2013,11,19,00,01,5.10
2013,11,19,00,02,5.10
2013,11,19,00,03,5.10
2013,11,19,00,04,5.10
2013,11,19,00,05,5.10
2013,11,19,00,06,5.10
2013,11,19,00,07,5.10
2013,11,19,00,08,5.10
2013,11,19,00,09,5.10
2013,11,19,00,10,5.10
2013,11,19,00,11,5.10
2013,11,19,00,12,5.10
2013,11,19,00,13,5.10
2013,11,19,00,14,5.10
2013,11,19,00,15,5.10
2013,11,19,00,16,5.10
2013,11,19,00,17,5.10
2013,11,19,00,18,5.10
2013,11,19,00,19,5.10
2013,11,19,00,20,5.10
2013,11,19,00,21,5.10
2013,11,19,00,22,5.10
2013,11,19,00,23,5.10
2013,11,19,00,24,5.10
2013,11,19,00,25,5.10
2013,11,19,00,26,5.10
2013,11,19,00,27,5.10
2013,11,19,00,28,5.10
2013,11,19,00,29,5.10
2013,11,19,00,30,5.10
2013,11,19,00,31,5.10
2013,11,19,00,32,5.10
2013,11,19,00,33,5.10
2013,11,19,00,34,5.10
2013,11,19,00,35,5.10
2013,11,19,00,36,5.10
2013,11,19,00,37,5.10
2013,11,19,00,38,5.10
2013,11,19,00,39,5.10
2013,11,19,00,40,5.10
2013,11,19,00,41,5.10
2013,11,19,00,42,5.10
2013,11,19,00,43,5.10
2013,11,19,00,44,5.10
2013,11,19,00,45,5.10
2013,11,19,00,46,5.10
2013,11,19,00,47,5.10
2013,11,19,00,48,5.10
2013,11,19,00,49,5.10
2013,11,19,00,50,5.10
2013,11,19,00,51,5.10
2013,11,19,00,52,5.10
2013,11,19,00,53,5.10
2013,11,19,00,54,5.10
2013,11,19,00,55,5.10
2013,11,19,00,56,5.10
2013,11,19,00,57,5.10
2013,11,19,00,58,5.10
2013,11,19,00,59,5.10
2013,11,19,01,00,5.10
2013,11,19,01,01,5.10
2013,11,19,01,02,5.10
2013,11,19,01,03,5.10
2013,11,19,01,04,5.10
2013,11,19,01,05,5.10
2013,11,19,01,06,5.10
2013,11,19,01,07,5.10
2013,11,19,01,08,5.10
2013,11,19,01,09,5.10
2013,11,19,01,10,5.10
2013,11,19,01,11,5.10
2013,11,19,01,12,5.10
2013,11,19,01,13,5.10
2013,11,19,01,14,5.10
2013,11,19,01,15,5.10
2013,11,19,01,16,5.10
2013,11,19,01,17,5.10
2013,11,19,01,18,5.20
2013,11,19,01,19,5.20
2013,11,19,01,20,5.20
2013,11,19,01,21,5.20
2013,11,19,01,22,5.20
2013,11,19,01,23,5.20
2013,11,19,01,24,5.20
2013,11,19,01,25,5.20
2013,11,19,01,26,5.20
2013,11,19,01,27,5.20
2013,11,19,01,28,5.20
2013,11,19,01,29,5.20
2013,11,19,01,30,5.20
2013,11,19,01,31,5.20
2013,11,19,01,32,5.20
2013,11,19,01,33,5.20
2013,11,19,01,34,5.20
2013,11,19,01,35,5.20
2013,11,19,01,36,5.20
2013,11,19,01,37,5.20
2013,11,19,01,38,5.20
2013,11,19,01,39,5.20
2013,11,19,01,40,5.20
2013,11,19,01,41,5.20
2013,11,19,01,42,5.20
2013,11,19,01,43,5.20
2013,11,19,01,44,5.20
2013,11,19,01,45,5.20
2013,11,19,01,46,5.20
2013,11,19,01,47,5.10
2013,11,19,01,48,5.10
2013,11,19,01,49,5.10
2013,11,19,01,50,5.10
2013,11,19,01,51,5.10
2013,11,19,01,52,5.10
2013,11,19,01,53,5.10
2013,11,19,01,54,5.10
2013,11,19,01,55,5.10
2013,11,19,01,56,5.10
2013,11,19,01,57,5.10
2013,11,19,01,58,5.10
2013,11,19,01,59,5.10
2013,11,19,02,00,5.10
2013,11,19,02,01,5.10
2013,11,19,02,02,5.10
2013,11,19,02,03,5.10
2013,11,19,02,04,5.10
2013,11,19,02,05,5.10
2013,11,19,02,06,5.10
2013,11,19,02,07,5.10
2013,11,19,02,08,5.10
2013,11,19,02,09,5.10
2013,11,19,02,10,5.10
2013,11,19,02,11,5.10
2013,11,19,02,12,5.10
2013,11,19,02,13,5.10
2013,11,19,02,14,5.10
2013,11,19,02,15,5.20
2013,11,19,02,16,5.20
2013,11,19,02,17,5.20
2013,11,19,02,18,5.20
2013,11,19,02,19,5.20
2013,11,19,02,20,5.20
2013,11,19,02,21,5.20
2013,11,19,02,22,5.20
2013,11,19,02,23,5.20
2013,11,19,02,24,5.20
2013,11,19,02,25,5.20
2013,11,19,02,26,5.20
2013,11,19,02,27,5.20
2013,11,19,02,28,5.20
2013,11,19,02,29,5.20
2013,11,19,02,30,5.20
2013,11,19,02,31,5.20
2013,11,19,02,32,5.20
2013,11,19,02,33,5.20
2013,11,19,02,34,5.20
2013,11,19,02,35,5.20
2013,11,19,02,36,5.10
2013,11,19,02,37,5.10
2013,11,19,02,38,5.10
2013,11,19,02,39,5.10
2013,11,19,02,40,5.10
2013,11,19,02,41,5.10
2013,11,19,02,42,5.10
2013,11,19,02,43,5.10
2013,11,19,02,44,5.10
2013,11,19,02,45,5.10
2013,11,19,02,46,5.10
2013,11,19,02,47,5.10
2013,11,19,02,48,5.00
2013,11,19,02,49,4.90
2013,11,19,02,50,4.90
2013,11,19,02,51,4.90
2013,11,19,02,52,4.90
2013,11,19,02,53,4.90
2013,11,19,02,54,4.80
2013,11,19,02,55,4.80
2013,11,19,02,56,4.80
2013,11,19,02,57,4.80
2013,11,19,02,58,4.70
2013,11,19,02,59,4.70
2013,11,19,03,00,4.70
2013,11,19,03,01,4.70
2013,11,19,03,02,4.70
2013,11,19,03,03,4.60
2013,11,19,03,04,4.60
2013,11,19,03,05,4.60
2013,11,19,03,06,4.60
2013,11,19,03,07,4.60
2013,11,19,03,08,4.60
2013,11,19,03,09,4.50
2013,11,19,03,10,4.50
2013,11,19,03,11,4.50
2013,11,19,03,12,4.50
2013,11,19,03,13,4.50
2013,11,19,03,14,4.40
2013,11,19,03,15,4.40
2013,11,19,03,16,4.40
2013,11,19,03,17,4.40
2013,11,19,03,18,4.40
2013,11,19,03,19,4.40
2013,11,19,03,20,4.40
2013,11,19,03,21,4.40
2013,11,19,03,22,4.40
2013,11,19,03,23,4.40
2013,11,19,03,24,4.30
2013,11,19,03,25,4.30
2013,11,19,03,26,4.30
2013,11,19,03,27,4.30
2013,11,19,03,28,4.30
2013,11,19,03,29,4.30
2013,11,19,03,30,4.30
2013,11,19,03,31,4.20
2013,11,19,03,32,4.20
2013,11,19,03,33,4.20
2013,11,19,03,34,4.20
2013,11,19,03,35,4.20
2013,11,19,03,36,4.20
2013,11,19,03,37,4.20
2013,11,19,03,38,4.20
2013,11,19,03,39,4.20
2013,11,19,03,40,4.20
2013,11,19,03,41,4.10
2013,11,19,03,42,4.10
2013,11,19,03,43,4.10
2013,11,19,03,44,4.10
2013,11,19,03,45,4.10
2013,11,19,03,46,4.10
2013,11,19,03,47,4.10
2013,11,19,03,48,4.10
2013,11,19,03,49,4.00
2013,11,19,03,50,4.00
2013,11,19,03,51,4.00
2013,11,19,03,52,4.00
2013,11,19,03,53,4.00
2013,11,19,03,54,4.00
2013,11,19,03,55,4.00
2013,11,19,03,56,4.00
2013,11,19,03,57,4.00
2013,11,19,03,58,3.90
2013,11,19,03,59,3.90
2013,11,19,04,00,3.90
2013,11,19,04,01,3.90
2013,11,19,04,02,3.90
2013,11,19,04,03,3.90
2013,11,19,04,04,3.90
2013,11,19,04,05,3.80
2013,11,19,04,06,3.80
2013,11,19,04,07,3.80
2013,11,19,04,08,3.80
2013,11,19,04,09,3.80
2013,11,19,04,10,3.80
2013,11,19,04,11,3.80
2013,11,19,04,12,3.80
2013,11,19,04,13,3.80
2013,11,19,04,14,3.80
2013,11,19,04,15,3.80
2013,11,19,04,16,3.70
2013,11,19,04,17,3.70
2013,11,19,04,18,3.70
2013,11,19,04,19,3.70
2013,11,19,04,20,3.70
2013,11,19,04,21,3.60
2013,11,19,04,22,3.60
2013,11,19,04,23,3.60
2013,11,19,04,24,3.60
2013,11,19,04,25,3.60
2013,11,19,04,26,3.60
2013,11,19,04,27,3.50
2013,11,19,04,28,3.50
2013,11,19,04,29,3.50
2013,11,19,04,30,3.50
2013,11,19,04,31,3.50
2013,11,19,04,32,3.50
2013,11,19,04,33,3.50
2013,11,19,04,34,3.50
2013,11,19,04,35,3.50
2013,11,19,04,36,3.40
2013,11,19,04,37,3.40
2013,11,19,04,38,3.40
2013,11,19,04,39,3.40
2013,11,19,04,40,3.30
2013,11,19,04,41,3.30
2013,11,19,04,42,3.30
2013,11,19,04,43,3.30
2013,11,19,04,44,3.30
2013,11,19,04,45,3.30
2013,11,19,04,46,3.30
2013,11,19,04,47,3.20
2013,11,19,04,48,3.20
2013,11,19,04,49,3.20
2013,11,19,04,50,3.20
2013,11,19,04,51,3.20
2013,11,19,04,52,3.10
2013,11,19,04,53,3.10
2013,11,19,04,54,3.10
2013,11,19,04,55,3.10
2013,11,19,04,56,3.00
2013,11,19,04,57,2.90
2013,11,19,04,58,2.90
2013,11,19,04,59,2.90
2013,11,19,05,00,2.90
2013,11,19,05,01,2.90
2013,11,19,05,02,2.90
2013,11,19,05,03,2.90
2013,11,19,05,04,2.80
2013,11,19,05,05,2.80
2013,11,19,05,06,2.80
2013,11,19,05,07,2.80
2013,11,19,05,08,2.80
2013,11,19,05,09,2.80
2013,11,19,05,10,2.70
2013,11,19,05,11,2.70
2013,11,19,05,12,2.70
2013,11,19,05,13,2.70
2013,11,19,05,14,2.70
2013,11,19,05,15,2.70
2013,11,19,05,16,2.70
2013,11,19,05,17,2.70
2013,11,19,05,18,2.60
2013,11,19,05,19,2.60
2013,11,19,05,20,2.50
2013,11,19,05,21,2.50
2013,11,19,05,22,2.50
2013,11,19,05,23,2.40
2013,11,19,05,24,2.40
2013,11,19,05,25,2.40
2013,11,19,05,26,2.40
2013,11,19,05,27,2.30
2013,11,19,05,28,2.30
2013,11,19,05,29,2.30
2013,11,19,05,30,2.30
2013,11,19,05,31,2.30
2013,11,19,05,32,2.30
2013,11,19,05,33,2.20
2013,11,19,05,34,2.20
2013,11,19,05,35,2.20
2013,11,19,05,36,2.20
2013,11,19,05,37,2.20
2013,11,19,05,38,2.20
2013,11,19,05,39,2.20
2013,11,19,05,40,2.10
2013,11,19,05,41,2.10
2013,11,19,05,42,2.10
2013,11,19,05,43,2.00
2013,11,19,05,44,2.00
2013,11,19,05,45,2.00
2013,11,19,05,46,2.00
2013,11,19,05,47,1.90
2013,11,19,05,48,1.90
2013,11,19,05,49,1.90
2013,11,19,05,50,1.90
2013,11,19,05,51,1.80
2013,11,19,05,52,1.80
2013,11,19,05,53,1.80
2013,11,19,05,54,1.80
2013,11,19,05,55,1.80
2013,11,19,05,56,1.80
2013,11,19,05,57,1.80
2013,11,19,05,58,1.70
2013,11,19,05,59,1.70
2013,11,19,06,00,1.70
2013,11,19,06,01,1.70
2013,11,19,06,02,1.60
2013,11,19,06,03,1.60
2013,11,19,06,04,1.60
2013,11,19,06,05,1.60
2013,11,19,06,06,1.60
2013,11,19,06,07,1.60
2013,11,19,06,08,1.60
2013,11,19,06,09,1.70
2013,11,19,06,10,1.70
2013,11,19,06,11,1.70
2013,11,19,06,12,1.60
2013,11,19,06,13,1.60
2013,11,19,06,14,1.60
2013,11,19,06,15,1.70
2013,11,19,06,16,1.70
2013,11,19,06,17,1.60
2013,11,19,06,18,1.60
2013,11,19,06,19,1.60
2013,11,19,06,20,1.60
2013,11,19,06,21,1.60
2013,11,19,06,22,1.50
2013,11,19,06,23,1.50
2013,11,19,06,24,1.50
2013,11,19,06,25,1.40
2013,11,19,06,26,1.40
2013,11,19,06,27,1.40
2013,11,19,06,28,1.40
2013,11,19,06,29,1.40
2013,11,19,06,30,1.30
2013,11,19,06,31,1.30
2013,11,19,06,32,1.30
2013,11,19,06,33,1.30
2013,11,19,06,34,1.30
2013,11,19,06,35,1.30
2013,11,19,06,36,1.30
2013,11,19,06,37,1.30
2013,11,19,06,38,1.30
2013,11,19,06,39,1.20
2013,11,19,06,40,1.20
2013,11,19,06,41,1.20
2013,11,19,06,42,1.20
2013,11,19,06,43,1.20
2013,11,19,06,44,1.20
2013,11,19,06,45,1.20
2013,11,19,06,46,1.10
2013,11,19,06,47,1.10
2013,11,19,06,48,1.10
2013,11,19,06,49,1.10
2013,11,19,06,50,1.10
2013,11,19,06,51,1.10
2013,11,19,06,52,1.10
2013,11,19,06,53,1.00
2013,11,19,06,54,1.00
2013,11,19,06,55,1.00
2013,11,19,06,56,1.00
2013,11,19,06,57,0.90
2013,11,19,06,58,0.90
2013,11,19,06,59,0.90
2013,11,19,07,00,0.90
2013,11,19,07,01,0.90
2013,11,19,07,02,0.80
2013,11,19,07,03,0.80
2013,11,19,07,04,0.80
2013,11,19,07,05,0.80
2013,11,19,07,06,0.80
2013,11,19,07,07,0.80
2013,11,19,07,08,0.80
2013,11,19,07,09,0.80
2013,11,19,07,10,0.80
2013,11,19,07,11,0.80
2013,11,19,07,12,0.80
2013,11,19,07,13,0.80
2013,11,19,07,14,0.70
2013,11,19,07,15,0.70
2013,11,19,07,16,0.70
2013,11,19,07,17,0.70
2013,11,19,07,18,0.70
2013,11,19,07,19,0.70
2013,11,19,07,20,0.70
2013,11,19,07,21,0.70
2013,11,19,07,22,0.70
2013,11,19,07,23,0.60
2013,11,19,07,24,0.60
2013,11,19,07,25,0.60
2013,11,19,07,26,0.60
2013,11,19,07,27,0.60
2013,11,19,07,28,0.60
2013,11,19,07,29,0.70
2013,11,19,07,30,0.70
2013,11,19,07,31,0.70
2013,11,19,07,32,0.80
2013,11,19,07,33,0.80
2013,11,19,07,34,0.80
2013,11,19,07,35,0.80
2013,11,19,07,36,0.80
2013,11,19,07,37,0.80
2013,11,19,07,38,0.80
2013,11,19,07,39,0.80
2013,11,19,07,40,0.80
2013,11,19,07,41,0.80
2013,11,19,07,42,0.80
2013,11,19,07,43,0.80
2013,11,19,07,44,0.70
2013,11,19,07,45,0.70
2013,11,19,07,46,0.70
2013,11,19,07,47,0.60
2013,11,19,07,48,0.60
2013,11,19,07,49,0.60
2013,11,19,07,50,0.60
2013,11,19,07,51,0.50
2013,11,19,07,52,0.50
2013,11,19,07,53,0.50
2013,11,19,07,54,0.50
2013,11,19,07,55,0.50
2013,11,19,07,56,0.50
2013,11,19,07,57,0.40
2013,11,19,07,58,0.40
2013,11,19,07,59,0.40
2013,11,19,08,00,0.40
2013,11,19,08,01,0.40
2013,11,19,08,02,0.40
2013,11,19,08,03,0.40
2013,11,19,08,04,0.40
2013,11,19,08,05,0.40
2013,11,19,08,06,0.40
2013,11,19,08,07,0.40
2013,11,19,08,08,0.40
2013,11,19,08,09,0.30
2013,11,19,08,10,0.30
2013,11,19,08,11,0.30
2013,11,19,08,12,0.30
2013,11,19,08,13,0.30
2013,11,19,08,14,0.30
2013,11,19,08,15,0.30
2013,11,19,08,16,0.30
2013,11,19,08,17,0.30
2013,11,19,08,18,0.30
2013,11,19,08,19,0.30
2013,11,19,08,20,0.30
2013,11,19,08,21,0.40
2013,11,19,08,22,0.40
2013,11,19,08,23,0.40
2013,11,19,08,24,0.50
2013,11,19,08,25,0.50
2013,11,19,08,38,0.60
2013,11,19,08,39,0.60
2013,11,19,08,40,0.60
2013,11,19,08,41,0.60
2013,11,19,08,42,0.70
2013,11,19,08,43,0.70
2013,11,19,08,44,0.70
2013,11,19,08,45,0.80
2013,11,19,08,46,0.80
2013,11,19,08,47,0.80
2013,11,19,08,48,0.80
2013,11,19,08,49,0.80
2013,11,19,08,50,0.90
2013,11,19,08,51,0.90
2013,11,19,08,52,0.90
2013,11,19,08,53,1.00
2013,11,19,08,54,1.00
2013,11,19,08,55,1.00
2013,11,19,08,56,1.00
2013,11,19,08,57,1.10
2013,11,19,08,58,1.20
2013,11,19,08,59,1.20
2013,11,19,09,00,1.30
2013,11,19,09,01,1.30
2013,11,19,09,02,1.40
2013,11,19,09,03,1.40
2013,11,19,09,04,1.50
2013,11,19,09,05,1.50
2013,11,19,09,06,1.50
2013,11,19,09,07,1.50
2013,11,19,09,08,1.50
2013,11,19,09,09,1.60
2013,11,19,09,10,1.60
2013,11,19,09,11,1.60
2013,11,19,09,12,1.60
2013,11,19,09,13,1.60
2013,11,19,09,14,1.70
2013,11,19,09,15,1.70
2013,11,19,09,16,1.80
2013,11,19,09,17,1.80
2013,11,19,09,18,1.80
2013,11,19,09,19,1.80
2013,11,19,09,20,1.80
2013,11,19,09,21,1.80
2013,11,19,09,22,1.80
2013,11,19,09,23,1.80
2013,11,19,09,24,1.80
2013,11,19,09,25,1.80
2013,11,19,09,26,1.90
2013,11,19,09,27,1.90
2013,11,19,09,28,1.90
2013,11,19,09,29,1.90
2013,11,19,09,30,1.90
2013,11,19,09,31,1.90
2013,11,19,09,32,1.90
2013,11,19,09,33,2.00
2013,11,19,09,34,2.00
2013,11,19,09,35,2.00
2013,11,19,09,36,2.00
2013,11,19,09,37,2.00
2013,11,19,09,38,2.10
2013,11,19,09,39,2.10
2013,11,19,09,40,2.10
2013,11,19,09,41,2.10
2013,11,19,09,42,2.20
2013,11,19,09,43,2.20
2013,11,19,09,44,2.20
2013,11,19,09,45,2.20
2013,11,19,09,46,2.20
2013,11,19,09,47,2.20
2013,11,19,09,48,2.20
2013,11,19,09,49,2.20
2013,11,19,09,50,2.20
2013,11,19,09,51,2.20
2013,11,19,09,52,2.30
2013,11,19,09,53,2.40
2013,11,19,09,54,2.40
2013,11,19,09,55,2.50
2013,11,19,09,56,2.50
2013,11,19,09,57,2.60
2013,11,19,09,58,2.60
2013,11,19,09,59,2.60
2013,11,19,10,00,2.70
2013,11,19,10,01,2.70
2013,11,19,10,02,2.70
2013,11,19,10,03,2.70
2013,11,19,10,04,2.80
2013,11,19,10,05,2.80
2013,11,19,10,06,2.80
2013,11,19,10,07,2.80
2013,11,19,10,08,2.90
2013,11,19,10,09,2.90
2013,11,19,10,10,2.90
2013,11,19,10,11,2.90
2013,11,19,10,12,2.90
2013,11,19,10,13,2.90
2013,11,19,10,14,2.90
2013,11,19,10,15,2.90
2013,11,19,10,16,3.00
2013,11,19,10,17,3.10
2013,11,19,10,18,3.10
2013,11,19,10,19,3.20
2013,11,19,10,20,3.20
2013,11,19,10,21,3.30
2013,11,19,10,22,3.30
2013,11,19,10,23,3.40
2013,11,19,10,24,3.50
2013,11,19,10,25,3.50
2013,11,19,10,26,3.60
2013,11,19,10,27,3.70
2013,11,19,10,28,3.80
2013,11,19,10,29,3.90
2013,11,19,10,30,4.00
2013,11,19,10,31,4.10
2013,11,19,10,32,4.20
2013,11,19,10,33,4.30
2013,11,19,10,34,4.40
2013,11,19,10,35,4.50
2013,11,19,10,36,4.60
2013,11,19,10,37,4.60
2013,11,19,10,38,4.70
2013,11,19,10,39,4.80
2013,11,19,10,40,4.80
2013,11,19,10,41,4.80
2013,11,19,10,42,4.90
2013,11,19,10,43,4.80
2013,11,19,10,44,4.80
2013,11,19,10,45,4.70
2013,11,19,10,46,4.70
2013,11,19,10,47,4.70
2013,11,19,10,48,4.60
2013,11,19,10,49,4.70
2013,11,19,10,50,4.80
2013,11,19,10,51,4.90
2013,11,19,10,52,5.00
2013,11,19,10,53,5.10
2013,11,19,10,54,5.20
2013,11,19,10,55,5.30
2013,11,19,10,56,5.30
2013,11,19,10,57,5.20
2013,11,19,10,58,5.10
2013,11,19,10,59,5.10
2013,11,19,11,00,5.00
2013,11,19,11,01,4.90
2013,11,19,11,02,4.90
2013,11,19,11,03,4.90
2013,11,19,11,04,4.90
2013,11,19,11,05,4.90
2013,11,19,11,06,4.90
2013,11,19,11,07,4.90
2013,11,19,11,08,4.90
2013,11,19,11,09,4.90
2013,11,19,11,10,4.90
2013,11,19,11,11,5.00
2013,11,19,11,12,5.10
2013,11,19,11,13,5.10
2013,11,19,11,14,5.10
2013,11,19,11,15,5.20
2013,11,19,11,16,5.30
2013,11,19,11,17,5.20
2013,11,19,11,18,5.20
2013,11,19,11,19,5.20
2013,11,19,11,20,5.20
2013,11,19,11,21,5.10
2013,11,19,11,22,5.10
2013,11,19,11,23,5.10
2013,11,19,11,24,5.10
2013,11,19,11,25,5.10
2013,11,19,11,26,5.10
2013,11,19,11,27,5.10
2013,11,19,11,28,5.10
2013,11,19,11,29,5.10
2013,11,19,11,30,5.10
2013,11,19,11,31,5.10
2013,11,19,11,32,5.10
2013,11,19,11,33,5.00
2013,11,19,11,34,4.90
2013,11,19,11,35,4.90
2013,11,19,11,36,4.90
2013,11,19,11,37,4.90
2013,11,19,11,38,4.90
2013,11,19,11,39,4.90
2013,11,19,11,40,4.90
2013,11,19,11,41,4.90
2013,11,19,11,42,4.90
2013,11,19,11,43,4.80
2013,11,19,11,44,4.80
2013,11,19,11,45,4.80
2013,11,19,11,46,4.80
2013,11,19,11,47,4.80
2013,11,19,11,48,4.90
2013,11,19,11,49,4.90
2013,11,19,11,50,4.90
2013,11,19,11,51,4.90
2013,11,19,11,52,4.90
2013,11,19,11,53,4.90
2013,11,19,11,54,4.90
2013,11,19,11,55,4.90
2013,11,19,11,56,4.90
2013,11,19,11,57,4.90
2013,11,19,11,58,4.90
2013,11,19,11,59,4.90
2013,11,19,12,00,4.90
2013,11,19,12,01,4.90
2013,11,19,12,02,4.90
2013,11,19,12,03,4.90
2013,11,19,12,04,4.90
2013,11,19,12,05,4.90
2013,11,19,12,06,4.90
2013,11,19,12,07,4.80
2013,11,19,12,08,4.80
2013,11,19,12,09,4.70
2013,11,19,12,10,4.70
2013,11,19,12,11,4.70
2013,11,19,12,12,4.70
2013,11,19,12,13,4.70
2013,11,19,12,14,4.70
2013,11,19,12,15,4.70
2013,11,19,12,16,4.70
2013,11,19,12,17,4.70
2013,11,19,12,18,4.70
2013,11,19,12,19,4.60
2013,11,19,12,20,4.60
2013,11,19,12,21,4.60
2013,11,19,12,22,4.60
2013,11,19,12,23,4.60
2013,11,19,12,24,4.60
2013,11,19,12,25,4.60
2013,11,19,12,26,4.60
2013,11,19,12,27,4.50
2013,11,19,12,28,4.50
2013,11,19,12,29,4.50
2013,11,19,12,30,4.50
2013,11,19,12,31,4.50
2013,11,19,12,32,4.50
2013,11,19,12,33,4.40
2013,11,19,12,34,4.40
2013,11,19,12,35,4.40
2013,11,19,12,36,4.40
2013,11,19,12,37,4.30
2013,11,19,12,38,4.30
2013,11,19,12,39,4.20
2013,11,19,12,40,4.20
2013,11,19,12,41,4.20
2013,11,19,12,42,4.20
2013,11,19,12,43,4.20
2013,11,19,12,44,4.30
2013,11,19,12,45,4.30
2013,11,19,12,46,4.30
2013,11,19,12,47,4.40
2013,11,19,12,48,4.40
2013,11,19,12,49,4.40
2013,11,19,12,50,4.40
2013,11,19,12,51,4.50
2013,11,19,12,52,4.60
2013,11,19,12,53,4.60
2013,11,19,12,54,4.60
2013,11,19,12,55,4.60
2013,11,19,12,56,4.60
2013,11,19,12,57,4.60
2013,11,19,12,58,4.70
2013,11,19,12,59,4.70
2013,11,19,13,00,4.70
2013,11,19,13,01,4.70
2013,11,19,13,02,4.70
2013,11,19,13,03,4.70
2013,11,19,13,04,4.60
2013,11,19,13,05,4.60
2013,11,19,13,06,4.60
2013,11,19,13,07,4.50
2013,11,19,13,08,4.40
2013,11,19,13,09,4.40
2013,11,19,13,10,4.40
2013,11,19,13,11,4.40
2013,11,19,13,12,4.30
2013,11,19,13,13,4.30
2013,11,19,13,14,4.30
2013,11,19,13,15,4.30
2013,11,19,13,16,4.20
2013,11,19,13,17,4.20
2013,11,19,13,18,4.20
2013,11,19,13,19,4.20
2013,11,19,13,20,4.20
2013,11,19,13,21,4.20
2013,11,19,13,22,4.20
2013,11,19,13,23,4.20
2013,11,19,13,24,4.20
2013,11,19,13,25,4.10
2013,11,19,13,26,4.10
2013,11,19,13,27,4.10
2013,11,19,13,28,4.10
2013,11,19,13,29,4.00
2013,11,19,13,30,4.00
2013,11,19,13,31,4.00
2013,11,19,13,32,3.90
2013,11,19,13,33,3.80
2013,11,19,13,34,3.80
2013,11,19,13,35,3.70
2013,11,19,13,36,3.60
2013,11,19,13,37,3.60
2013,11,19,13,38,3.50
2013,11,19,13,39,3.50
2013,11,19,13,40,3.40
2013,11,19,13,41,3.40
2013,11,19,13,42,3.30
2013,11,19,13,43,3.30
2013,11,19,13,44,3.30
2013,11,19,13,45,3.30
2013,11,19,13,46,3.30
2013,11,19,13,47,3.30
2013,11,19,13,48,3.30
2013,11,19,13,49,3.30
2013,11,19,13,50,3.30
2013,11,19,13,51,3.30
2013,11,19,13,52,3.30
2013,11,19,13,53,3.30
2013,11,19,13,54,3.30
2013,11,19,13,55,3.30
2013,11,19,13,56,3.30
2013,11,19,13,57,3.20
2013,11,19,13,58,3.20
2013,11,19,13,59,3.20
2013,11,19,14,00,3.10
2013,11,19,14,01,3.10
2013,11,19,14,02,3.10
2013,11,19,14,03,3.10
2013,11,19,14,04,3.10
2013,11,19,14,05,3.20
2013,11,19,14,06,3.20
2013,11,19,14,07,3.20
2013,11,19,14,08,3.20
2013,11,19,14,09,3.20
2013,11,19,14,10,3.30
2013,11,19,14,11,3.30
2013,11,19,14,12,3.30
2013,11,19,14,13,3.30
2013,11,19,14,14,3.30
2013,11,19,14,15,3.30
2013,11,19,14,16,3.30
2013,11,19,14,17,3.40
2013,11,19,14,18,3.40
2013,11,19,14,19,3.40
2013,11,19,14,20,3.40
2013,11,19,14,21,3.50
2013,11,19,14,22,3.50
2013,11,19,14,23,3.50
2013,11,19,14,24,3.50
2013,11,19,14,25,3.50
2013,11,19,14,26,3.50
2013,11,19,14,27,3.50
2013,11,19,14,28,3.50
2013,11,19,14,29,3.60
2013,11,19,14,30,3.60
2013,11,19,14,31,3.60
2013,11,19,14,32,3.60
2013,11,19,14,33,3.60
2013,11,19,14,34,3.70
2013,11,19,14,35,3.70
2013,11,19,14,36,3.70
2013,11,19,14,37,3.80
2013,11,19,14,38,3.80
2013,11,19,14,39,3.80
2013,11,19,14,40,3.70
2013,11,19,14,41,3.70
2013,11,19,14,42,3.70
2013,11,19,14,43,3.70
2013,11,19,14,44,3.70
2013,11,19,14,45,3.60
2013,11,19,14,46,3.60
2013,11,19,14,47,3.60
2013,11,19,14,48,3.60
2013,11,19,14,49,3.60
2013,11,19,14,50,3.50
2013,11,19,14,51,3.50
2013,11,19,14,52,3.50
2013,11,19,14,53,3.50
2013,11,19,14,54,3.50
2013,11,19,14,55,3.50
2013,11,19,14,56,3.50
2013,11,19,14,57,3.40
2013,11,19,14,58,3.40
2013,11,19,14,59,3.30
2013,11,19,15,00,3.30
2013,11,19,15,01,3.20
2013,11,19,15,02,3.20
2013,11,19,15,03,3.10
2013,11,19,15,04,3.10
2013,11,19,15,05,3.10
2013,11,19,15,06,3.10
2013,11,19,15,07,3.10
2013,11,19,15,08,3.10
2013,11,19,15,09,3.10
2013,11,19,15,10,3.10
2013,11,19,15,11,3.10
2013,11,19,15,12,3.10
2013,11,19,15,13,3.10
2013,11,19,15,14,3.10
2013,11,19,15,15,2.90
2013,11,19,15,16,2.90
2013,11,19,15,17,2.90
2013,11,19,15,18,2.90
2013,11,19,15,19,2.90
2013,11,19,15,20,2.90
2013,11,19,15,21,2.90
2013,11,19,15,22,2.90
2013,11,19,15,23,2.80
2013,11,19,15,24,2.80
2013,11,19,15,25,2.80
2013,11,19,15,26,2.80
2013,11,19,15,27,2.80
2013,11,19,15,28,2.80
2013,11,19,15,29,2.80
2013,11,19,15,30,2.70
2013,11,19,15,31,2.70
2013,11,19,15,32,2.70
2013,11,19,15,33,2.70
2013,11,19,15,34,2.70
2013,11,19,15,35,2.60
2013,11,19,15,36,2.60
2013,11,19,15,37,2.60
2013,11,19,15,38,2.60
2013,11,19,15,39,2.60
2013,11,19,15,40,2.50
2013,11,19,15,41,2.50
2013,11,19,15,42,2.50
2013,11,19,15,43,2.50
2013,11,19,15,44,2.50
2013,11,19,15,45,2.50
2013,11,19,15,46,2.40
2013,11,19,15,47,2.40
2013,11,19,15,48,2.40
2013,11,19,15,49,2.30
2013,11,19,15,50,2.30
2013,11,19,15,51,2.30
2013,11,19,15,52,2.20
2013,11,19,15,53,2.20
2013,11,19,15,54,2.20
2013,11,19,15,55,2.20
2013,11,19,15,56,2.20
2013,11,19,15,57,2.10
2013,11,19,15,58,2.10
2013,11,19,15,59,2.00
2013,11,19,16,00,2.00
2013,11,19,16,01,2.00
2013,11,19,16,02,1.90
2013,11,19,16,03,1.90
2013,11,19,16,04,1.80
2013,11,19,16,05,1.80
2013,11,19,16,06,1.80
2013,11,19,16,07,1.70
2013,11,19,16,08,1.60
2013,11,19,16,09,1.60
2013,11,19,16,10,1.50
2013,11,19,16,11,1.50
2013,11,19,16,12,1.40
2013,11,19,16,13,1.30
2013,11,19,16,14,1.30
2013,11,19,16,15,1.30
2013,11,19,16,16,1.20
2013,11,19,16,17,1.20
2013,11,19,16,18,1.20
2013,11,19,16,19,1.10
2013,11,19,16,20,1.10
2013,11,19,16,21,1.10
2013,11,19,16,22,1.10
2013,11,19,16,23,1.00
2013,11,19,16,24,1.00
2013,11,19,16,25,1.00
2013,11,19,16,26,0.90
2013,11,19,16,27,0.90
2013,11,19,16,28,0.90
2013,11,19,16,29,0.80
2013,11,19,16,30,0.80
2013,11,19,16,31,0.80
2013,11,19,16,32,0.80
2013,11,19,16,33,0.80
2013,11,19,16,34,0.80
2013,11,19,16,35,0.80
2013,11,19,16,36,0.80
2013,11,19,16,37,0.80
2013,11,19,16,38,0.80
2013,11,19,16,39,0.90
2013,11,19,16,40,0.90
2013,11,19,16,41,0.90
2013,11,19,16,42,0.90
2013,11,19,16,43,0.90
2013,11,19,16,44,0.90
2013,11,19,16,45,0.90
2013,11,19,16,46,0.90
2013,11,19,16,47,0.90
2013,11,19,16,48,0.90
2013,11,19,16,49,0.90
2013,11,19,16,50,0.90
2013,11,19,16,51,0.90
2013,11,19,16,52,0.90
2013,11,19,16,53,0.90
2013,11,19,16,54,1.00
2013,11,19,16,55,1.00
2013,11,19,16,56,1.00
2013,11,19,16,57,1.00
2013,11,19,16,58,1.00
2013,11,19,16,59,1.10
2013,11,19,17,00,1.10
2013,11,19,17,01,1.10
2013,11,19,17,02,1.10
2013,11,19,17,03,1.20
2013,11,19,17,04,1.20
2013,11,19,17,05,1.20
2013,11,19,17,06,1.20
2013,11,19,17,07,1.30
2013,11,19,17,08,1.30
2013,11,19,17,09,1.30
2013,11,19,17,10,1.30
2013,11,19,17,11,1.30
2013,11,19,17,12,1.30
2013,11,19,17,13,1.30
2013,11,19,17,14,1.30
2013,11,19,17,15,1.30
2013,11,19,17,16,1.30
2013,11,19,17,17,1.30
2013,11,19,17,18,1.30
2013,11,19,17,19,1.30
2013,11,19,17,20,1.30
2013,11,19,17,21,1.30
2013,11,19,17,22,1.30
2013,11,19,17,23,1.30
2013,11,19,17,24,1.30
2013,11,19,17,25,1.30
2013,11,19,17,26,1.30
2013,11,19,17,27,1.30
2013,11,19,17,28,1.30
2013,11,19,17,29,1.30
2013,11,19,17,30,1.30
2013,11,19,17,31,1.30
2013,11,19,17,32,1.30
2013,11,19,17,33,1.30
2013,11,19,17,34,1.30
2013,11,19,17,35,1.30
2013,11,19,17,36,1.30
2013,11,19,17,37,1.30
2013,11,19,17,38,1.30
2013,11,19,17,39,1.20
2013,11,19,17,40,1.20
2013,11,19,17,41,1.20
2013,11,19,17,42,1.10
2013,11,19,17,43,1.10
2013,11,19,17,44,1.00
2013,11,19,17,45,1.00
2013,11,19,17,46,0.90
2013,11,19,17,47,0.90
2013,11,19,17,48,0.80
2013,11,19,17,49,0.80
2013,11,19,17,50,0.80
2013,11,19,17,51,0.80
2013,11,19,17,52,0.80
2013,11,19,17,53,0.80
2013,11,19,17,54,0.80
2013,11,19,17,55,0.80
2013,11,19,17,56,0.70
2013,11,19,17,57,0.70
2013,11,19,17,58,0.70
2013,11,19,17,59,0.60
2013,11,19,18,00,0.60
2013,11,19,18,01,0.50
2013,11,19,18,02,0.50
2013,11,19,18,03,0.50
2013,11,19,18,04,0.40
2013,11,19,18,05,0.40
2013,11,19,18,06,0.40
2013,11,19,18,07,0.40
2013,11,19,18,08,0.30
2013,11,19,18,09,0.30
2013,11,19,18,10,0.30
2013,11,19,18,11,0.30
2013,11,19,18,12,0.30
2013,11,19,18,13,0.30
2013,11,19,18,14,0.20
2013,11,19,18,15,0.20
2013,11,19,18,16,0.20
2013,11,19,18,17,0.20
2013,11,19,18,18,0.20